Location: Dana
(41.8364°N, 106.7042°W)
Time: 14:08:36
(UTC+00:00)

Vanguard 3 - Pass Details

Date: 12 May 2026
Orbit: 507 x 3204 km, 33.3° (Epoch: 8 June)

Event Time Altitude Azimuth Distance (km) Brightness Sun altitude
Rises 00:00:36 0° 260° (W) 7,152 13.3 23.5°
Reaches altitude 10° 00:05:36 10° 258° (WSW) 6,085 13.2 22.5°
Maximum altitude 00:23:51 62° 184° (S) 2,777 10.1 19.2°
Drops below altitude 10° 00:35:41 10° 108° (ESE) 4,132 10.2 17.0°
Sets 00:38:24 0° 104° (ESE) 4,820 10.5 16.5°
